• In Uzbekistan
  • List of Countries
  • For 7 days
  • Water Temperature
  • Satellite Maps
  • Weather Map
  • Weather Widgets
  • user-avatar
    Login

    Hourly Weather Nakhchivan

    Today, 24 March, Sunday

    Time Temperature Precipitation Wind Pressure Humidity
    00:00 +10°C° 0 mm 2 mps 683 mmHg 36%
    01:00 +10°C° 0 mm 2 mps 683 mmHg 38%
    02:00 +9°C° 0 mm 2 mps 683 mmHg 40%
    03:00 +9°C° 0 mm 2 mps 682 mmHg 39%
    04:00 +8°C° 0 mm 2 mps 682 mmHg 42%
    05:00 +8°C° 0 mm 2 mps 681 mmHg 45%
    06:00 +8°C° 0 mm 1 mps 681 mmHg 48%
    07:00 +9°C° 0 mm 2 mps 681 mmHg 46%
    08:00 +10°C° 0 mm 3 mps 681 mmHg 45%
    09:00 +12°C° 0 mm 3 mps 681 mmHg 43%
    10:00 +13°C° 0 mm 4 mps 680 mmHg 39%
    11:00 +14°C° 0 mm 5 mps 680 mmHg 35%
    12:00 +16°C° 0 mm 6 mps 680 mmHg 32%
    13:00 +16°C° 0 mm 6 mps 680 mmHg 31%
    14:00 +16°C° 0 mm 7 mps 680 mmHg 31%
    15:00 +17°C° 0 mm 7 mps 680 mmHg 30%
    16:00 +16°C° 0.1 mm 7 mps 680 mmHg 34%
    17:00 +15°C° 0.1 mm 6 mps 680 mmHg 38%
    18:00 +14°C° 0.1 mm 5 mps 680 mmHg 42%
    19:00 +13°C° 0.6 mm 5 mps 680 mmHg 48%
    20:00 +10°C° 0.6 mm 5 mps 680 mmHg 54%
    21:00 +9°C° 0.6 mm 5 mps 680 mmHg 60%
    22:00 +8°C° 0.8 mm 5 mps 680 mmHg 62%
    23:00 +8°C° 0.8 mm 4 mps 680 mmHg 64%

    Tomorrow, 25 March, Monday

    Time Temperature Precipitation Wind Pressure Humidity
    00:00 +8°C° 0.8 mm 3 mps 680 mmHg 65%
    01:00 +8°C° 0.4 mm 3 mps 680 mmHg 65%
    02:00 +8°C° 0.4 mm 3 mps 680 mmHg 65%
    03:00 +7°C° 0.4 mm 3 mps 680 mmHg 65%
    04:00 +7°C° 0 mm 3 mps 680 mmHg 64%
    05:00 +7°C° 0 mm 3 mps 680 mmHg 63%
    06:00 +7°C° 0 mm 3 mps 680 mmHg 62%
    07:00 +7°C° 0 mm 2 mps 680 mmHg 59%
    08:00 +8°C° 0 mm 2 mps 680 mmHg 55%
    09:00 +9°C° 0 mm 2 mps 680 mmHg 52%
    10:00 +10°C° 0.1 mm 2 mps 680 mmHg 49%
    11:00 +12°C° 0.1 mm 2 mps 680 mmHg 46%
    12:00 +13°C° 0.1 mm 2 mps 680 mmHg 43%
    13:00 +13°C° 0.2 mm 2 mps 680 mmHg 45%
    14:00 +12°C° 0.2 mm 2 mps 680 mmHg 46%
    15:00 +12°C° 0.2 mm 2 mps 679 mmHg 48%
    16:00 +12°C° 0.2 mm 2 mps 680 mmHg 50%
    17:00 +12°C° 0.2 mm 2 mps 680 mmHg 52%
    18:00 +10°C° 0.2 mm 2 mps 681 mmHg 54%
    19:00 +11°C° 0.1 mm 1 mps 681 mmHg 54%
    20:00 +10°C° 0.1 mm 1 mps 682 mmHg 55%
    21:00 +10°C° 0.1 mm 1 mps 683 mmHg 55%
    22:00 +10°C° 0 mm 1 mps 683 mmHg 55%
    23:00 +10°C° 0 mm 1 mps 683 mmHg 55%

    Day after tomorrow, 26 March, Tuesday

    Time Temperature Precipitation Wind Pressure Humidity
    00:00 +9°C° 0 mm 1 mps 683 mmHg 56%
    01:00 +9°C° 0 mm 1 mps 683 mmHg 57%
    02:00 +8°C° 0 mm 0 mps 683 mmHg 59%
    03:00 +7°C° 0 mm 0 mps 683 mmHg 60%
    04:00 +7°C° 0.1 mm 0 mps 683 mmHg 62%
    05:00 +7°C° 0.1 mm 0 mps 684 mmHg 63%
    06:00 +8°C° 0.1 mm 1 mps 684 mmHg 65%
    07:00 +8°C° 0.3 mm 1 mps 684 mmHg 64%
    08:00 +7°C° 0.3 mm 0 mps 684 mmHg 64%
    09:00 +8°C° 0.3 mm 0 mps 684 mmHg 63%
    10:00 +8°C° 0.3 mm 0 mps 684 mmHg 61%
    11:00 +9°C° 0.3 mm 0 mps 684 mmHg 59%
    12:00 +9°C° 0.3 mm 0 mps 684 mmHg 56%
    13:00 +10°C° 0 mm 0 mps 684 mmHg 53%
    14:00 +12°C° 0 mm 1 mps 683 mmHg 50%
    15:00 +13°C° 0 mm 1 mps 683 mmHg 46%
    16:00 +13°C° 0 mm 1 mps 683 mmHg 47%
    17:00 +13°C° 0 mm 1 mps 683 mmHg 48%
    18:00 +13°C° 0 mm 1 mps 683 mmHg 49%
    19:00 +12°C° 0 mm 1 mps 684 mmHg 52%
    20:00 +12°C° 0 mm 2 mps 684 mmHg 56%
    21:00 +10°C° 0 mm 2 mps 684 mmHg 59%
    22:00 +11°C° 0 mm 1 mps 684 mmHg 61%
    23:00 +10°C° 0 mm 1 mps 684 mmHg 63%

    27 March, Wednesday

    Time Temperature Precipitation Wind Pressure Humidity
    00:00 +10°C° 0 mm 1 mps 684 mmHg 65%
    01:00 +9°C° 0 mm 1 mps 684 mmHg 67%
    02:00 +9°C° 0 mm 1 mps 684 mmHg 68%
    03:00 +8°C° 0 mm 1 mps 683 mmHg 70%
    04:00 +8°C° 0 mm 1 mps 684 mmHg 70%
    05:00 +8°C° 0 mm 1 mps 684 mmHg 70%
    06:00 +7°C° 0 mm 0 mps 684 mmHg 71%
    07:00 +8°C° 0 mm 1 mps 684 mmHg 66%
    08:00 +9°C° 0 mm 1 mps 684 mmHg 61%
    09:00 +10°C° 0 mm 1 mps 684 mmHg 57%
    10:00 +11°C° 0 mm 1 mps 684 mmHg 52%
    11:00 +12°C° 0 mm 1 mps 684 mmHg 48%
    12:00 +12°C° 0 mm 0 mps 684 mmHg 44%
    13:00 +14°C° 0 mm 1 mps 684 mmHg 41%
    14:00 +15°C° 0 mm 1 mps 684 mmHg 38%
    15:00 +16°C° 0 mm 1 mps 684 mmHg 35%
    16:00 +16°C° 0 mm 2 mps 684 mmHg 35%
    17:00 +15°C° 0 mm 2 mps 685 mmHg 36%
    18:00 +15°C° 0 mm 2 mps 685 mmHg 36%
    19:00 +14°C° 0 mm 2 mps 685 mmHg 39%
    20:00 +14°C° 0 mm 1 mps 686 mmHg 42%
    21:00 +13°C° 0 mm 1 mps 686 mmHg 45%
    22:00 +12°C° 0 mm 1 mps 686 mmHg 47%
    23:00 +12°C° 0 mm 1 mps 686 mmHg 49%

    28 March, Thursday

    Time Temperature Precipitation Wind Pressure Humidity
    00:00 +11°C° 0 mm 1 mps 686 mmHg 50%
    01:00 +11°C° 0 mm 1 mps 686 mmHg 51%
    02:00 +10°C° 0 mm 1 mps 686 mmHg 52%
    03:00 +10°C° 0 mm 1 mps 686 mmHg 53%
    04:00 +9°C° 0 mm 1 mps 686 mmHg 53%
    05:00 +9°C° 0 mm 1 mps 686 mmHg 54%
    06:00 +8°C° 0 mm 0 mps 686 mmHg 54%
    07:00 +9°C° 0.2 mm 0 mps 686 mmHg 53%
    08:00 +9°C° 0.2 mm 0 mps 686 mmHg 51%
    09:00 +10°C° 0.2 mm 0 mps 686 mmHg 50%
    10:00 +11°C° 0.4 mm 1 mps 686 mmHg 51%
    11:00 +11°C° 0.4 mm 1 mps 686 mmHg 52%
    12:00 +12°C° 0.4 mm 2 mps 686 mmHg 54%
    13:00 +12°C° 0.1 mm 2 mps 686 mmHg 52%
    14:00 +13°C° 0.1 mm 2 mps 685 mmHg 50%
    15:00 +14°C° 0.1 mm 2 mps 685 mmHg 48%
    16:00 +13°C° 0.2 mm 2 mps 685 mmHg 49%
    17:00 +13°C° 0.2 mm 2 mps 685 mmHg 50%
    18:00 +13°C° 0.2 mm 2 mps 685 mmHg 52%
    19:00 +12°C° 0.1 mm 2 mps 685 mmHg 54%
    20:00 +12°C° 0.1 mm 1 mps 686 mmHg 56%
    21:00 +11°C° 0.1 mm 1 mps 686 mmHg 58%
    22:00 +11°C° 0 mm 1 mps 686 mmHg 58%
    23:00 +11°C° 0 mm 1 mps 686 mmHg 58%

    29 March, Friday

    Time Temperature Precipitation Wind Pressure Humidity
    00:00 +10°C° 0 mm 1 mps 686 mmHg 59%
    01:00 +10°C° 0.1 mm 1 mps 686 mmHg 59%
    02:00 +10°C° 0.1 mm 1 mps 686 mmHg 60%
    03:00 +9°C° 0.1 mm 1 mps 686 mmHg 61%
    04:00 +9°C° 0.1 mm 1 mps 686 mmHg 63%
    05:00 +9°C° 0.1 mm 1 mps 686 mmHg 65%
    06:00 +9°C° 0.1 mm 1 mps 686 mmHg 68%
    07:00 +9°C° 0 mm 1 mps 687 mmHg 65%
    08:00 +10°C° 0 mm 1 mps 687 mmHg 63%
    09:00 +9°C° 0 mm 0 mps 687 mmHg 60%
    10:00 +11°C° 0 mm 1 mps 686 mmHg 56%
    11:00 +12°C° 0 mm 1 mps 686 mmHg 53%
    12:00 +13°C° 0 mm 1 mps 686 mmHg 49%
    13:00 +14°C° 0 mm 1 mps 686 mmHg 46%
    14:00 +15°C° 0 mm 2 mps 685 mmHg 43%
    15:00 +15°C° 0 mm 2 mps 685 mmHg 39%
    16:00 +15°C° 0 mm 2 mps 685 mmHg 39%
    17:00 +15°C° 0 mm 2 mps 685 mmHg 39%
    18:00 +15°C° 0 mm 2 mps 685 mmHg 38%
    19:00 +15°C° 0 mm 2 mps 685 mmHg 41%
    20:00 +14°C° 0 mm 2 mps 685 mmHg 43%
    21:00 +14°C° 0 mm 2 mps 686 mmHg 45%
    22:00 +13°C° 0 mm 2 mps 685 mmHg 47%
    23:00 +13°C° 0 mm 2 mps 685 mmHg 49%
    Show more